ASA577 KPDX-KSAN

Flight info

Callsign ASA577
Flight time 2h 0m
Altitude 35000
Route HRMNS6 HYJOE BORDY COLOM PASKE HUULK COMIX2
Aircraft B739/M-SDE2E3FGHIRWXY/LB1

Departure

Time 2026-05-05 14:03
Airport Portland International Airport (KPDX)

Arrival

Time 2026-05-05 16:03
Airport San Diego International Airport (KSAN)
Time Latitude Longitude Altitude Speed Heading
2026-05-05 13:47 45.58860 -122.59694 39 ft 0 kts 27°
2026-05-05 13:56 45.58857 -122.59697 39 ft 3 kts 27°
2026-05-05 13:57 45.58834 -122.59715 37 ft 4 kts 30°
2026-05-05 13:57 45.58813 -122.59732 39 ft 4 kts 36°
2026-05-05 13:57 45.58799 -122.59757 35 ft 4 kts 96°
2026-05-05 13:57 45.58807 -122.59789 36 ft 2 kts 119°
2026-05-05 13:58 45.58810 -122.59796 37 ft 0 kts 119°
2026-05-05 13:59 45.58799 -122.59769 35 ft 7 kts 119°
2026-05-05 13:59 45.58774 -122.59705 36 ft 8 kts 120°
2026-05-05 14:00 45.58657 -122.59618 37 ft 16 kts 120°
2026-05-05 14:00 45.58583 -122.59431 36 ft 26 kts 119°
2026-05-05 14:00 45.58495 -122.59205 37 ft 25 kts 119°
2026-05-05 14:00 45.58411 -122.58991 35 ft 24 kts 119°
2026-05-05 14:01 45.58333 -122.58791 43 ft 23 kts 119°
2026-05-05 14:01 45.58257 -122.58596 35 ft 22 kts 119°
2026-05-05 14:01 45.58189 -122.58421 35 ft 17 kts 119°
2026-05-05 14:01 45.58114 -122.58370 32 ft 14 kts 200°
2026-05-05 14:02 45.58091 -122.58483 34 ft 15 kts 296°
2026-05-05 14:02 45.58207 -122.58783 35 ft 69 kts 299°
2026-05-05 14:02 45.58562 -122.59693 36 ft 137 kts 299°
2026-05-05 14:02 45.59117 -122.61113 103 ft 184 kts 299°
2026-05-05 14:03 45.59761 -122.62689 840 ft 186 kts 302°
2026-05-05 14:03 45.60474 -122.64287 1532 ft 197 kts 301°
2026-05-05 14:03 45.61255 -122.66039 1770 ft 221 kts 302°
2026-05-05 14:03 45.62100 -122.68007 1961 ft 244 kts 299°
2026-05-05 14:04 45.62969 -122.70181 2417 ft 257 kts 298°
2026-05-05 14:04 45.63867 -122.72426 3156 ft 262 kts 299°
2026-05-05 14:04 45.64775 -122.74683 4007 ft 262 kts 300°
2026-05-05 14:04 45.65687 -122.76944 4861 ft 263 kts 301°
2026-05-05 14:05 45.66604 -122.79218 5634 ft 267 kts 300°
2026-05-05 14:05 45.67147 -122.81755 6206 ft 280 kts 272°
2026-05-05 14:05 45.66802 -122.84531 6872 ft 288 kts 254°
2026-05-05 14:05 45.66206 -122.87262 7642 ft 288 kts 253°
2026-05-05 14:06 45.65369 -122.89867 8385 ft 292 kts 231°
2026-05-05 14:06 45.63804 -122.91680 9139 ft 292 kts 204°
2026-05-05 14:06 45.61837 -122.92308 9883 ft 293 kts 178°
2026-05-05 14:06 45.59829 -122.91817 10487 ft 298 kts 163°
2026-05-05 14:07 45.57770 -122.90935 10653 ft 320 kts 162°
2026-05-05 14:07 45.55571 -122.89964 10824 ft 341 kts 162°
2026-05-05 14:07 45.53277 -122.88770 10972 ft 360 kts 152°
2026-05-05 14:07 45.51070 -122.86958 11345 ft 371 kts 147°
2026-05-05 14:08 45.48864 -122.85001 11900 ft 376 kts 146°
2026-05-05 14:08 45.46637 -122.83012 12492 ft 380 kts 146°
2026-05-05 14:08 45.44380 -122.81015 13106 ft 384 kts 146°
2026-05-05 14:08 45.42094 -122.79017 13696 ft 388 kts 146°
2026-05-05 14:09 45.39776 -122.77010 14214 ft 392 kts 146°
2026-05-05 14:09 45.37431 -122.74995 14742 ft 395 kts 146°
2026-05-05 14:09 45.35065 -122.72971 15281 ft 398 kts 146°
2026-05-05 14:09 45.32677 -122.70935 15802 ft 402 kts 146°
2026-05-05 14:10 45.30268 -122.68883 16316 ft 405 kts 146°
2026-05-05 14:10 45.27837 -122.66815 16829 ft 409 kts 146°
2026-05-05 14:10 45.25378 -122.64726 17340 ft 412 kts 146°
2026-05-05 14:10 45.22913 -122.62633 17827 ft 416 kts 146°
2026-05-05 14:11 45.20424 -122.60523 18299 ft 419 kts 146°
2026-05-05 14:11 45.17909 -122.58392 18715 ft 423 kts 146°
2026-05-05 14:11 45.15411 -122.56277 19143 ft 425 kts 146°
2026-05-05 14:11 45.12865 -122.54125 19589 ft 427 kts 146°
2026-05-05 14:12 45.10303 -122.51961 20034 ft 430 kts 146°
2026-05-05 14:12 45.07724 -122.49785 20481 ft 433 kts 146°
2026-05-05 14:12 45.05129 -122.47598 20917 ft 435 kts 146°
2026-05-05 14:12 45.02518 -122.45398 21340 ft 438 kts 146°
2026-05-05 14:13 44.99890 -122.43187 21755 ft 441 kts 146°
2026-05-05 14:13 44.97245 -122.40965 22169 ft 444 kts 146°
2026-05-05 14:13 44.94565 -122.38778 22561 ft 448 kts 150°
2026-05-05 14:13 44.91653 -122.37122 22954 ft 454 kts 158°
2026-05-05 14:14 44.88641 -122.35740 23320 ft 458 kts 160°
2026-05-05 14:14 44.85582 -122.34415 23690 ft 461 kts 160°
2026-05-05 14:14 44.82506 -122.33087 23991 ft 464 kts 160°
2026-05-05 14:14 44.79423 -122.31729 24335 ft 465 kts 159°
2026-05-05 14:15 44.76337 -122.30339 24680 ft 467 kts 159°
2026-05-05 14:15 44.73243 -122.28923 25007 ft 469 kts 159°
2026-05-05 14:15 44.70137 -122.27489 25360 ft 470 kts 159°
2026-05-05 14:15 44.67021 -122.26043 25673 ft 473 kts 159°
2026-05-05 14:16 44.63889 -122.24588 25984 ft 475 kts 159°
2026-05-05 14:16 44.60785 -122.23149 26311 ft 477 kts 159°
2026-05-05 14:16 44.57627 -122.21687 26620 ft 479 kts 159°
2026-05-05 14:16 44.54451 -122.20220 26917 ft 482 kts 159°
2026-05-05 14:17 44.51260 -122.18748 27204 ft 484 kts 159°
2026-05-05 14:17 44.48057 -122.17273 27487 ft 487 kts 159°
2026-05-05 14:17 44.44827 -122.15788 27801 ft 489 kts 159°
2026-05-05 14:17 44.41597 -122.14304 28080 ft 491 kts 159°
2026-05-05 14:18 44.38346 -122.12813 28372 ft 493 kts 159°
2026-05-05 14:18 44.35081 -122.11316 28636 ft 495 kts 159°
2026-05-05 14:18 44.31801 -122.09816 28965 ft 497 kts 159°
2026-05-05 14:18 44.28518 -122.08315 29343 ft 496 kts 159°
2026-05-05 14:19 44.25242 -122.06820 29782 ft 495 kts 159°
2026-05-05 14:19 44.21978 -122.05333 30202 ft 493 kts 159°
2026-05-05 14:19 44.18721 -122.03849 30529 ft 492 kts 159°
2026-05-05 14:19 44.15463 -122.02365 30818 ft 493 kts 159°
2026-05-05 14:20 44.12201 -122.00882 31118 ft 493 kts 159°
2026-05-05 14:20 44.08942 -121.99402 31447 ft 492 kts 158°
2026-05-05 14:20 44.05691 -121.97928 31820 ft 490 kts 158°
2026-05-05 14:20 44.02451 -121.96460 32136 ft 490 kts 158°
2026-05-05 14:21 43.99209 -121.94993 32404 ft 490 kts 158°
2026-05-05 14:21 43.95965 -121.93526 32679 ft 490 kts 158°
2026-05-05 14:21 43.92727 -121.92063 32934 ft 491 kts 158°
2026-05-05 14:21 43.89468 -121.90593 33174 ft 492 kts 158°
2026-05-05 14:22 43.86223 -121.89132 33460 ft 491 kts 158°
2026-05-05 14:22 43.82938 -121.87812 33748 ft 492 kts 162°
2026-05-05 14:22 43.79594 -121.86759 34019 ft 493 kts 165°
2026-05-05 14:22 43.76228 -121.85838 34272 ft 493 kts 165°
2026-05-05 14:23 43.72857 -121.84957 34472 ft 493 kts 165°
2026-05-05 14:23 43.69482 -121.84067 34641 ft 494 kts 165°
2026-05-05 14:23 43.66110 -121.83154 34852 ft 493 kts 165°
2026-05-05 14:23 43.62790 -121.82229 35007 ft 494 kts 164°
2026-05-05 14:24 43.56053 -121.80303 34992 ft 493 kts 163°
2026-05-05 14:24 43.49376 -121.78374 34990 ft 488 kts 163°
2026-05-05 14:25 43.42739 -121.76460 34977 ft 487 kts 163°
2026-05-05 14:25 43.36104 -121.74554 34980 ft 487 kts 163°
2026-05-05 14:26 43.29470 -121.72655 34971 ft 487 kts 163°
2026-05-05 14:26 43.22834 -121.70760 34954 ft 487 kts 163°
2026-05-05 14:27 43.16198 -121.68869 34958 ft 487 kts 163°
2026-05-05 14:27 43.09561 -121.66983 34953 ft 487 kts 163°
2026-05-05 14:28 43.04046 -121.65418 34943 ft 487 kts 163°
2026-05-05 14:28 42.97403 -121.63538 34961 ft 488 kts 163°
2026-05-05 14:29 42.90753 -121.61660 34946 ft 488 kts 163°
2026-05-05 14:29 42.84098 -121.59784 34936 ft 489 kts 163°
2026-05-05 14:30 42.77437 -121.57910 34951 ft 489 kts 162°
2026-05-05 14:30 42.70764 -121.56038 34949 ft 490 kts 162°
2026-05-05 14:31 42.64085 -121.54168 34939 ft 490 kts 162°
2026-05-05 14:31 42.57396 -121.52299 34937 ft 491 kts 162°
2026-05-05 14:32 42.50705 -121.50434 34948 ft 491 kts 162°
2026-05-05 14:32 42.44045 -121.48582 34943 ft 492 kts 162°
2026-05-05 14:33 42.37331 -121.46718 34942 ft 493 kts 162°
2026-05-05 14:33 42.30607 -121.44856 34946 ft 493 kts 162°
2026-05-05 14:34 42.23883 -121.42998 34946 ft 493 kts 162°
2026-05-05 14:34 42.17162 -121.41146 34968 ft 493 kts 162°
2026-05-05 14:35 42.10449 -121.39299 34965 ft 492 kts 162°
2026-05-05 14:35 42.03746 -121.37458 34968 ft 492 kts 162°
2026-05-05 14:36 41.97046 -121.35623 34947 ft 491 kts 162°
2026-05-05 14:36 41.90358 -121.33795 34943 ft 490 kts 162°
2026-05-05 14:37 41.83686 -121.31976 34957 ft 488 kts 161°
2026-05-05 14:37 41.77030 -121.30164 34938 ft 488 kts 161°
2026-05-05 14:38 41.70389 -121.28360 34944 ft 486 kts 161°
2026-05-05 14:38 41.63763 -121.26564 34962 ft 485 kts 161°
2026-05-05 14:39 41.57144 -121.24773 34957 ft 485 kts 161°
2026-05-05 14:39 41.50538 -121.22989 34965 ft 485 kts 161°
2026-05-05 14:40 41.43919 -121.21205 34965 ft 485 kts 161°
2026-05-05 14:40 41.37297 -121.19425 34978 ft 486 kts 161°
2026-05-05 14:41 41.30668 -121.17646 35006 ft 486 kts 161°
2026-05-05 14:41 41.24073 -121.15881 34993 ft 487 kts 161°
2026-05-05 14:42 41.17423 -121.14104 34988 ft 488 kts 161°
2026-05-05 14:42 41.10719 -121.12317 35005 ft 489 kts 160°
2026-05-05 14:43 41.04099 -121.10555 35000 ft 489 kts 160°
2026-05-05 14:43 40.97365 -121.09002 34993 ft 496 kts 166°
2026-05-05 14:44 40.90457 -121.08258 35005 ft 499 kts 168°
2026-05-05 14:44 40.83528 -121.07651 34998 ft 499 kts 168°
2026-05-05 14:45 40.76617 -121.06980 35012 ft 498 kts 168°
2026-05-05 14:45 40.69702 -121.06254 34973 ft 498 kts 167°
2026-05-05 14:46 40.62800 -121.05515 34986 ft 497 kts 167°
2026-05-05 14:46 40.55906 -121.04779 34988 ft 496 kts 167°
2026-05-05 14:47 40.49021 -121.04048 34977 ft 496 kts 167°
2026-05-05 14:47 40.42143 -121.03322 34972 ft 495 kts 167°
2026-05-05 14:48 40.35277 -121.02599 34978 ft 495 kts 167°
2026-05-05 14:48 40.28418 -121.01877 34972 ft 494 kts 167°
2026-05-05 14:49 40.21573 -121.01158 34993 ft 494 kts 167°
2026-05-05 14:49 40.14725 -121.00440 34990 ft 494 kts 167°
2026-05-05 14:50 40.07872 -120.99723 34984 ft 494 kts 167°
2026-05-05 14:50 40.01017 -120.99008 34996 ft 495 kts 167°
2026-05-05 14:51 39.94154 -120.98293 35003 ft 495 kts 167°
2026-05-05 14:51 39.87284 -120.97579 35005 ft 495 kts 167°
2026-05-05 14:52 39.80415 -120.96867 35032 ft 495 kts 168°
2026-05-05 14:52 39.73554 -120.96157 35014 ft 495 kts 168°
2026-05-05 14:53 39.66731 -120.95452 35015 ft 495 kts 168°
2026-05-05 14:53 39.59860 -120.94743 35016 ft 495 kts 168°
2026-05-05 14:54 39.52987 -120.94036 35017 ft 496 kts 168°
2026-05-05 14:54 39.46112 -120.93330 35027 ft 496 kts 168°
2026-05-05 14:55 39.39241 -120.92626 35023 ft 495 kts 168°
2026-05-05 14:55 39.32380 -120.91924 35033 ft 495 kts 168°
2026-05-05 14:56 39.25511 -120.91222 35050 ft 495 kts 168°
2026-05-05 14:56 39.18637 -120.90522 35043 ft 495 kts 168°
2026-05-05 14:57 39.11764 -120.89823 35019 ft 495 kts 168°
2026-05-05 14:57 39.04899 -120.89127 35028 ft 495 kts 168°
2026-05-05 14:58 38.98040 -120.88431 35037 ft 494 kts 168°
2026-05-05 14:58 38.91177 -120.87737 35042 ft 495 kts 168°
2026-05-05 14:59 38.84418 -120.86537 35042 ft 482 kts 155°
2026-05-05 14:59 38.78401 -120.83233 35056 ft 463 kts 141°
2026-05-05 15:00 38.73752 -120.79828 35043 ft 463 kts 141°
2026-05-05 15:00 38.67189 -120.75061 35053 ft 465 kts 142°
2026-05-05 15:01 38.61538 -120.71010 35029 ft 466 kts 142°
2026-05-05 15:01 38.55867 -120.66971 35027 ft 467 kts 142°
2026-05-05 15:02 38.50181 -120.62932 35023 ft 468 kts 142°
2026-05-05 15:02 38.44488 -120.58894 35032 ft 468 kts 142°
2026-05-05 15:03 38.38786 -120.54856 35036 ft 469 kts 142°
2026-05-05 15:03 38.33113 -120.50845 35032 ft 469 kts 142°
2026-05-05 15:04 38.27405 -120.46819 35034 ft 469 kts 142°
2026-05-05 15:04 38.21712 -120.42809 35048 ft 468 kts 142°
2026-05-05 15:05 38.13176 -120.36809 35028 ft 467 kts 142°
2026-05-05 15:06 38.07497 -120.32827 35027 ft 465 kts 142°
2026-05-05 15:06 38.01834 -120.28863 35030 ft 465 kts 142°
2026-05-05 15:07 37.96168 -120.24902 35022 ft 465 kts 142°
2026-05-05 15:07 37.90494 -120.20944 35031 ft 465 kts 142°
2026-05-05 15:08 37.84814 -120.16987 35030 ft 467 kts 143°
2026-05-05 15:08 37.79117 -120.13027 35029 ft 468 kts 143°
2026-05-05 15:09 37.73391 -120.09053 35029 ft 470 kts 143°
2026-05-05 15:09 37.67641 -120.05071 35037 ft 472 kts 143°
2026-05-05 15:10 37.61868 -120.01080 35013 ft 474 kts 143°
2026-05-05 15:10 37.56089 -119.97093 35039 ft 473 kts 143°
2026-05-05 15:11 37.50307 -119.93111 35021 ft 474 kts 143°
2026-05-05 15:11 37.44524 -119.89135 35026 ft 473 kts 143°
2026-05-05 15:12 37.38751 -119.85173 35017 ft 473 kts 143°
2026-05-05 15:12 37.32980 -119.81218 35032 ft 472 kts 144°
2026-05-05 15:13 37.27209 -119.77270 35011 ft 472 kts 144°
2026-05-05 15:13 37.22415 -119.73998 35011 ft 471 kts 144°
2026-05-05 15:14 37.15694 -119.69415 35019 ft 470 kts 144°
2026-05-05 15:14 37.09984 -119.65529 35026 ft 470 kts 144°
2026-05-05 15:15 37.04244 -119.61629 35021 ft 470 kts 144°
2026-05-05 15:15 36.98496 -119.57731 35047 ft 469 kts 145°
2026-05-05 15:16 36.93690 -119.54477 35038 ft 469 kts 145°
2026-05-05 15:16 36.87946 -119.50593 35044 ft 470 kts 146°
2026-05-05 15:17 36.82228 -119.46734 35038 ft 471 kts 146°
2026-05-05 15:17 36.76414 -119.42818 35032 ft 472 kts 146°
2026-05-05 15:18 36.70627 -119.38926 35028 ft 473 kts 146°
2026-05-05 15:18 36.64866 -119.35060 35023 ft 474 kts 146°
2026-05-05 15:19 36.59066 -119.31172 35024 ft 474 kts 146°
2026-05-05 15:19 36.53250 -119.27281 35036 ft 475 kts 146°
2026-05-05 15:20 36.47427 -119.23393 35053 ft 475 kts 147°
2026-05-05 15:20 36.41597 -119.19505 35053 ft 476 kts 148°
2026-05-05 15:21 36.35762 -119.15621 35045 ft 476 kts 148°
2026-05-05 15:21 36.29921 -119.11740 35040 ft 477 kts 148°
2026-05-05 15:22 36.24077 -119.07863 35027 ft 477 kts 148°
2026-05-05 15:22 36.18235 -119.03993 35028 ft 476 kts 148°
2026-05-05 15:23 36.12264 -119.00461 35019 ft 479 kts 159°
2026-05-05 15:23 36.05760 -118.98595 35036 ft 480 kts 166°
2026-05-05 15:24 35.99215 -118.96956 35035 ft 480 kts 166°
2026-05-05 15:24 35.92682 -118.95274 35031 ft 479 kts 166°
2026-05-05 15:25 35.86162 -118.93550 35030 ft 479 kts 166°
2026-05-05 15:25 35.79652 -118.91818 35024 ft 478 kts 166°
2026-05-05 15:26 35.73175 -118.90099 35018 ft 476 kts 166°
2026-05-05 15:26 35.66714 -118.88389 35026 ft 474 kts 167°
2026-05-05 15:27 35.60275 -118.86687 35023 ft 473 kts 167°
2026-05-05 15:27 35.53853 -118.84994 35031 ft 471 kts 167°
2026-05-05 15:28 35.47438 -118.83305 35028 ft 471 kts 167°
2026-05-05 15:28 35.41068 -118.81630 35032 ft 471 kts 167°
2026-05-05 15:29 35.34652 -118.79946 35025 ft 472 kts 167°
2026-05-05 15:29 35.28231 -118.78264 35028 ft 472 kts 167°
2026-05-05 15:30 35.21813 -118.76585 35020 ft 472 kts 168°
2026-05-05 15:30 35.15385 -118.74906 35025 ft 473 kts 168°
2026-05-05 15:31 35.08946 -118.73228 35021 ft 473 kts 168°
2026-05-05 15:31 35.02503 -118.71549 35018 ft 474 kts 169°
2026-05-05 15:32 34.96053 -118.69873 35025 ft 474 kts 169°
2026-05-05 15:32 34.89600 -118.68199 35022 ft 474 kts 169°
2026-05-05 15:33 34.83137 -118.66523 35014 ft 475 kts 169°
2026-05-05 15:33 34.76680 -118.64853 35004 ft 474 kts 169°
2026-05-05 15:34 34.70239 -118.63190 35002 ft 473 kts 169°
2026-05-05 15:34 34.63806 -118.61531 35002 ft 472 kts 169°
2026-05-05 15:35 34.57500 -118.59417 34983 ft 473 kts 152°
2026-05-05 15:35 34.51885 -118.55298 35015 ft 471 kts 150°
2026-05-05 15:36 34.46277 -118.51196 34998 ft 470 kts 150°
2026-05-05 15:36 34.40655 -118.47164 35014 ft 469 kts 151°
2026-05-05 15:37 34.35027 -118.43166 35023 ft 469 kts 152°
2026-05-05 15:37 34.29437 -118.39205 35028 ft 469 kts 152°
2026-05-05 15:38 34.23771 -118.35191 35019 ft 469 kts 152°
2026-05-05 15:38 34.18148 -118.31212 35020 ft 469 kts 152°
2026-05-05 15:39 34.12544 -118.27255 34981 ft 470 kts 153°
2026-05-05 15:39 34.09693 -118.25245 34316 ft 481 kts 152°
2026-05-05 15:39 34.06806 -118.23211 33590 ft 480 kts 152°
2026-05-05 15:39 34.03920 -118.21177 32780 ft 480 kts 152°
2026-05-05 15:40 34.01058 -118.19159 32263 ft 473 kts 152°
2026-05-05 15:40 33.98229 -118.17167 31695 ft 469 kts 152°
2026-05-05 15:40 33.95426 -118.15196 31150 ft 464 kts 152°
2026-05-05 15:40 33.92649 -118.13246 30613 ft 460 kts 152°
2026-05-05 15:41 33.89900 -118.11317 30082 ft 456 kts 152°
2026-05-05 15:41 33.87169 -118.09402 29406 ft 452 kts 152°
2026-05-05 15:41 33.84468 -118.07510 28844 ft 446 kts 152°
2026-05-05 15:41 33.81788 -118.05686 28353 ft 439 kts 154°
2026-05-05 15:42 33.79157 -118.03945 27838 ft 433 kts 154°
2026-05-05 15:42 33.76532 -118.02223 27324 ft 428 kts 154°
2026-05-05 15:42 33.73930 -118.00519 26841 ft 423 kts 154°
2026-05-05 15:42 33.71358 -117.98830 26329 ft 419 kts 154°
2026-05-05 15:43 33.68812 -117.97153 25824 ft 415 kts 153°
2026-05-05 15:43 33.66292 -117.95491 25329 ft 412 kts 153°
2026-05-05 15:43 33.63792 -117.93841 24854 ft 409 kts 154°
2026-05-05 15:43 33.61295 -117.92192 24372 ft 411 kts 153°
2026-05-05 15:44 33.58775 -117.90532 23835 ft 414 kts 153°
2026-05-05 15:44 33.56254 -117.88870 23260 ft 412 kts 153°
2026-05-05 15:44 33.53756 -117.87218 22754 ft 407 kts 152°
2026-05-05 15:44 33.51313 -117.85557 22311 ft 401 kts 152°
2026-05-05 15:45 33.48906 -117.83906 21816 ft 396 kts 152°
2026-05-05 15:45 33.46522 -117.82276 21319 ft 393 kts 152°
2026-05-05 15:45 33.44165 -117.80652 20837 ft 389 kts 149°
2026-05-05 15:45 33.42017 -117.78687 20356 ft 389 kts 140°
2026-05-05 15:46 33.40031 -117.76508 19887 ft 386 kts 139°
2026-05-05 15:46 33.38078 -117.74318 19422 ft 384 kts 139°
2026-05-05 15:46 33.36132 -117.72160 18952 ft 381 kts 139°
2026-05-05 15:46 33.34169 -117.70021 18505 ft 379 kts 140°
2026-05-05 15:47 33.32217 -117.67919 17971 ft 379 kts 140°
2026-05-05 15:47 33.30912 -117.66524 17595 ft 379 kts 140°
2026-05-05 15:47 33.28292 -117.63731 16964 ft 376 kts 140°
2026-05-05 15:47 33.26371 -117.61686 16507 ft 374 kts 140°
2026-05-05 15:48 33.24431 -117.59624 16004 ft 372 kts 140°
2026-05-05 15:48 33.22496 -117.57582 15531 ft 370 kts 140°
2026-05-05 15:48 33.20569 -117.55557 15064 ft 368 kts 140°
2026-05-05 15:48 33.18654 -117.53543 14612 ft 366 kts 140°
2026-05-05 15:49 33.16750 -117.51542 14163 ft 364 kts 140°
2026-05-05 15:49 33.14856 -117.49551 13700 ft 362 kts 140°
2026-05-05 15:49 33.12942 -117.47611 13196 ft 359 kts 144°
2026-05-05 15:49 33.10908 -117.45899 12735 ft 356 kts 148°
2026-05-05 15:50 33.08862 -117.44257 12288 ft 354 kts 148°
2026-05-05 15:50 33.06835 -117.42609 11838 ft 351 kts 147°
2026-05-05 15:50 33.04831 -117.40954 11394 ft 349 kts 147°
2026-05-05 15:50 33.02848 -117.39297 10960 ft 347 kts 147°
2026-05-05 15:51 33.00892 -117.37653 10741 ft 339 kts 147°
2026-05-05 15:51 32.98996 -117.36058 10580 ft 329 kts 147°
2026-05-05 15:51 32.97152 -117.34509 10425 ft 320 kts 147°
2026-05-05 15:51 32.95362 -117.33009 10286 ft 310 kts 148°
2026-05-05 15:52 32.93621 -117.31550 10184 ft 302 kts 148°
2026-05-05 15:52 32.91932 -117.30137 10030 ft 293 kts 148°
2026-05-05 15:52 32.90277 -117.28755 9664 ft 288 kts 148°
2026-05-05 15:52 32.88653 -117.27406 9331 ft 281 kts 148°
2026-05-05 15:53 32.87059 -117.26084 9019 ft 278 kts 148°
2026-05-05 15:53 32.85481 -117.24774 8712 ft 276 kts 148°
2026-05-05 15:53 32.83904 -117.23466 8409 ft 275 kts 148°
2026-05-05 15:53 32.82351 -117.22175 8144 ft 270 kts 146°
2026-05-05 15:54 32.81099 -117.20526 7779 ft 272 kts 116°
2026-05-05 15:54 32.80499 -117.18413 7502 ft 268 kts 105°
2026-05-05 15:54 32.80039 -117.16271 7195 ft 267 kts 104°
2026-05-05 15:54 32.79586 -117.14141 6894 ft 264 kts 105°
2026-05-05 15:55 32.79132 -117.12052 6593 ft 258 kts 105°
2026-05-05 15:55 32.78688 -117.10038 6490 ft 247 kts 106°
2026-05-05 15:55 32.78247 -117.08049 6206 ft 251 kts 106°
2026-05-05 15:55 32.77803 -117.06079 6008 ft 248 kts 106°
2026-05-05 15:56 32.77332 -117.04121 5747 ft 243 kts 107°
2026-05-05 15:56 32.76871 -117.02237 5528 ft 232 kts 107°
2026-05-05 15:56 32.76428 -117.00428 5343 ft 225 kts 107°
2026-05-05 15:56 32.75998 -116.98669 5143 ft 218 kts 108°
2026-05-05 15:57 32.75370 -116.97072 4897 ft 210 kts 131°
2026-05-05 15:57 32.74287 -116.95975 4658 ft 203 kts 155°
2026-05-05 15:57 32.72971 -116.95461 4439 ft 198 kts 176°
2026-05-05 15:57 32.71640 -116.95539 4202 ft 189 kts 197°
2026-05-05 15:58 32.70465 -116.96143 3985 ft 181 kts 217°
2026-05-05 15:58 32.69561 -116.97153 3775 ft 178 kts 236°
2026-05-05 15:58 32.68962 -116.98445 3528 ft 181 kts 253°
2026-05-05 15:58 32.68820 -116.99911 3313 ft 179 kts 272°
2026-05-05 15:59 32.69059 -117.01350 3078 ft 178 kts 288°
2026-05-05 15:59 32.69423 -117.02750 2850 ft 178 kts 284°
2026-05-05 15:59 32.69765 -117.04165 2629 ft 179 kts 284°
2026-05-05 15:59 32.70111 -117.05592 2406 ft 180 kts 284°
2026-05-05 16:00 32.70456 -117.07011 2173 ft 178 kts 284°
2026-05-05 16:00 32.70788 -117.08378 1907 ft 170 kts 284°
2026-05-05 16:00 32.71104 -117.09677 1705 ft 156 kts 285°
2026-05-05 16:00 32.71398 -117.10887 1445 ft 151 kts 285°
2026-05-05 16:01 32.71684 -117.12074 1198 ft 148 kts 284°
2026-05-05 16:01 32.71969 -117.13246 991 ft 148 kts 284°
2026-05-05 16:01 32.72256 -117.14433 757 ft 151 kts 285°
2026-05-05 16:01 32.72546 -117.15626 563 ft 150 kts 284°
2026-05-05 16:02 32.72838 -117.16826 305 ft 153 kts 284°
2026-05-05 16:02 32.73133 -117.18044 47 ft 153 kts 284°
2026-05-05 16:02 32.73402 -117.19159 21 ft 117 kts 286°
2026-05-05 16:02 32.73567 -117.19836 28 ft 54 kts 286°
2026-05-05 16:03 32.73647 -117.20165 22 ft 35 kts 286°
2026-05-05 16:03 32.73680 -117.20382 22 ft 17 kts 244°
2026-05-05 16:03 32.73595 -117.20378 22 ft 15 kts 113°
2026-05-05 16:03 32.73554 -117.20214 22 ft 26 kts 106°
2026-05-05 16:04 32.73521 -117.20075 22 ft 26 kts 106°
2026-05-05 16:04 32.73459 -117.19957 22 ft 13 kts 180°
2026-05-05 16:04 32.73370 -117.19979 22 ft 13 kts 193°
2026-05-05 16:04 32.73308 -117.19993 23 ft 4 kts 206°
2026-05-05 16:05 32.73300 -117.20019 22 ft 4 kts 269°
2026-05-05 16:05 32.73302 -117.20048 22 ft 3 kts 275°
2026-05-05 16:05 32.73303 -117.20065 23 ft 2 kts 275°
2026-05-05 16:05 32.73304 -117.20067 23 ft 0 kts 275°
2026-05-05 16:06 32.73304 -117.20066 23 ft 0 kts 275°
2026-05-05 16:06 32.73303 -117.20066 23 ft 0 kts 275°